Time,TemperatureF,DewpointF,PressureIn,WindDirection,WindDirectionDegrees,WindSpeedMPH,WindSpeedGustMPH,Humidity,HourlyPrecipIn,Conditions,Clouds,dailyrainin,SoftwareType,DateUTC
2013-02-04 00:03:00,27.0,25.0,29.84,WNW,300,4.0,7.0,92,0.00,,,0.05,,2013-02-04 05:03:00,
2013-02-04 00:11:00,27.0,25.0,29.84,WNW,300,4.0,7.0,92,0.00,,,0.05,,2013-02-04 05:11:00,
2013-02-04 00:22:00,28.0,25.0,29.84,West,271,3.0,6.0,87,0.00,,,0.05,,2013-02-04 05:22:00,
2013-02-04 00:33:00,28.0,24.0,29.84,West,278,2.0,6.0,86,0.00,,,0.05,,2013-02-04 05:33:00,
2013-02-04 00:42:00,28.0,24.0,29.84,West,278,2.0,6.0,86,0.00,,,0.05,,2013-02-04 05:42:00,
2013-02-04 00:52:00,28.0,23.0,29.84,West,261,3.0,8.0,82,0.00,,,0.05,,2013-02-04 05:52:00,
2013-02-04 01:02:00,28.0,22.0,29.84,WNW,288,2.0,6.0,79,0.00,,,0.05,,2013-02-04 06:02:00,
2013-02-04 01:11:00,28.0,22.0,29.84,WNW,288,2.0,6.0,79,0.00,,,0.05,,2013-02-04 06:11:00,
2013-02-04 01:21:00,28.0,21.0,29.85,WSW,257,3.0,7.0,76,0.00,,,0.05,,2013-02-04 06:21:00,
2013-02-04 01:32:00,27.0,19.0,29.85,NW,309,5.0,10.0,70,0.00,,,0.05,,2013-02-04 06:32:00,
2013-02-04 01:42:00,27.0,19.0,29.85,NW,309,5.0,10.0,70,0.00,,,0.05,,2013-02-04 06:42:00,
2013-02-04 01:51:00,26.0,17.0,29.86,WNW,301,3.0,9.0,69,0.00,,,0.05,,2013-02-04 06:51:00,
2013-02-04 02:02:00,26.0,17.0,29.87,WNW,285,3.0,8.0,67,0.00,,,0.05,,2013-02-04 07:02:00,
2013-02-04 02:11:00,25.0,15.0,29.88,NW,305,2.0,10.0,65,0.00,,,0.05,,2013-02-04 07:11:00,
2013-02-04 02:21:00,25.0,15.0,29.88,NW,305,2.0,10.0,65,0.00,,,0.05,,2013-02-04 07:21:00,
2013-02-04 02:32:00,25.0,15.0,29.88,WNW,286,1.0,10.0,64,0.00,,,0.05,,2013-02-04 07:32:00,
2013-02-04 02:42:00,25.0,15.0,29.88,WNW,286,1.0,10.0,64,0.00,,,0.05,,2013-02-04 07:42:00,
2013-02-04 02:52:00,24.0,14.0,29.88,West,259,1.0,7.0,64,0.00,,,0.05,,2013-02-04 07:52:00,
2013-02-04 03:01:00,24.0,13.0,29.89,West,261,2.0,8.0,63,0.00,,,0.05,,2013-02-04 08:01:00,
2013-02-04 03:11:00,24.0,13.0,29.89,West,261,2.0,8.0,63,0.00,,,0.05,,2013-02-04 08:11:00,
2013-02-04 03:21:00,24.0,13.0,29.89,NW,304,1.0,6.0,61,0.00,,,0.05,,2013-02-04 08:21:00,
2013-02-04 03:32:00,24.0,13.0,29.89,NNW,340,5.0,11.0,61,0.00,,,0.05,,2013-02-04 08:32:00,
2013-02-04 03:42:00,24.0,13.0,29.89,NNW,340,5.0,11.0,61,0.00,,,0.05,,2013-02-04 08:42:00,
2013-02-04 03:52:00,24.0,13.0,29.89,WNW,284,4.0,12.0,61,0.00,,,0.05,,2013-02-04 08:52:00,
2013-02-04 04:02:00,23.0,12.0,29.90,NW,321,4.0,13.0,61,0.00,,,0.05,,2013-02-04 09:02:00,
2013-02-04 04:11:00,23.0,12.0,29.91,West,281,1.0,11.0,61,0.00,,,0.05,,2013-02-04 09:11:00,
2013-02-04 04:21:00,23.0,12.0,29.91,West,281,1.0,11.0,61,0.00,,,0.05,,2013-02-04 09:21:00,
2013-02-04 04:32:00,23.0,12.0,29.91,West,281,1.0,11.0,61,0.00,,,0.05,,2013-02-04 09:32:00,
2013-02-04 04:42:00,23.0,12.0,29.91,West,281,1.0,11.0,61,0.00,,,0.05,,2013-02-04 09:42:00,
2013-02-04 04:51:00,23.0,12.0,29.93,WNW,300,3.0,8.0,62,0.00,,,0.05,,2013-02-04 09:51:00,
2013-02-04 05:02:00,23.0,12.0,29.93,West,268,2.0,8.0,63,0.00,,,0.05,,2013-02-04 10:02:00,
2013-02-04 05:12:00,23.0,12.0,29.93,West,268,2.0,8.0,63,0.00,,,0.05,,2013-02-04 10:12:00,
2013-02-04 05:21:00,23.0,12.0,29.94,NW,313,5.0,12.0,63,0.00,,,0.05,,2013-02-04 10:21:00,
2013-02-04 05:32:00,23.0,12.0,29.94,NW,320,4.0,12.0,63,0.00,,,0.05,,2013-02-04 10:32:00,
2013-02-04 05:42:00,23.0,12.0,29.94,NW,320,4.0,12.0,63,0.00,,,0.05,,2013-02-04 10:42:00,
2013-02-04 05:51:00,23.0,12.0,29.95,West,278,4.0,9.0,63,0.00,,,0.05,,2013-02-04 10:51:00,
2013-02-04 06:02:00,22.0,12.0,29.96,NW,307,1.0,8.0,64,0.00,,,0.05,,2013-02-04 11:02:00,
2013-02-04 06:11:00,22.0,12.0,29.96,NW,307,1.0,8.0,64,0.00,,,0.05,,2013-02-04 11:11:00,
2013-02-04 06:22:00,22.0,12.0,29.96,West,275,1.0,6.0,65,0.00,,,0.05,,2013-02-04 11:22:00,
2013-02-04 06:33:00,21.0,11.0,29.96,West,265,1.0,3.0,66,0.00,,,0.05,,2013-02-04 11:33:00,
2013-02-04 06:42:00,21.0,11.0,29.96,West,265,1.0,3.0,66,0.00,,,0.05,,2013-02-04 11:42:00,
2013-02-04 06:52:00,21.0,12.0,29.96,WNW,290,0.0,4.0,67,0.00,,,0.05,,2013-02-04 11:52:00,
2013-02-04 07:02:00,21.0,12.0,29.97,NW,309,1.0,4.0,67,0.00,,,0.05,,2013-02-04 12:02:00,
2013-02-04 07:12:00,21.0,12.0,29.97,NW,309,1.0,4.0,67,0.00,,,0.05,,2013-02-04 12:12:00,
2013-02-04 07:22:00,21.0,12.0,29.97,West,276,1.0,3.0,67,0.00,,,0.05,,2013-02-04 12:22:00,
2013-02-04 07:32:00,21.0,12.0,29.98,WSW,243,0.0,3.0,69,0.00,,,0.05,,2013-02-04 12:32:00,
2013-02-04 07:42:00,21.0,12.0,29.98,WSW,243,0.0,3.0,69,0.00,,,0.05,,2013-02-04 12:42:00,
2013-02-04 07:52:00,21.0,12.0,29.98,WSW,252,1.0,4.0,69,0.00,,,0.05,,2013-02-04 12:52:00,
2013-02-04 08:03:00,21.0,12.0,29.99,SW,232,0.0,4.0,68,0.00,,,0.05,,2013-02-04 13:03:00,
2013-02-04 08:12:00,22.0,12.0,29.99,West,265,2.0,5.0,66,0.00,,,0.05,,2013-02-04 13:12:00,
2013-02-04 08:22:00,22.0,12.0,29.99,West,265,2.0,5.0,66,0.00,,,0.05,,2013-02-04 13:22:00,
2013-02-04 08:33:00,23.0,13.0,30.01,SW,236,3.0,11.0,66,0.00,,,0.05,,2013-02-04 13:33:00,
2013-02-04 08:42:00,23.0,13.0,30.01,SW,236,3.0,11.0,66,0.00,,,0.05,,2013-02-04 13:42:00,
2013-02-04 08:52:00,23.0,13.0,30.01,West,270,3.0,7.0,66,0.00,,,0.05,,2013-02-04 13:52:00,
2013-02-04 09:03:00,24.0,14.0,30.01,West,264,3.0,8.0,65,0.00,,,0.05,,2013-02-04 14:03:00,
2013-02-04 09:12:00,24.0,14.0,30.01,West,264,3.0,8.0,65,0.00,,,0.05,,2013-02-04 14:12:00,
2013-02-04 09:22:00,24.0,14.0,30.02,WSW,243,4.0,10.0,65,0.00,,,0.05,,2013-02-04 14:22:00,
2013-02-04 09:33:00,25.0,15.0,30.01,West,279,4.0,10.0,65,0.00,,,0.05,,2013-02-04 14:33:00,
2013-02-04 09:42:00,25.0,15.0,30.01,West,279,4.0,10.0,65,0.00,,,0.05,,2013-02-04 14:42:00,
2013-02-04 09:52:00,25.0,14.0,30.02,WNW,284,4.0,11.0,62,0.00,,,0.05,,2013-02-04 14:52:00,
2013-02-04 10:03:00,25.0,14.0,30.02,NW,304,4.0,12.0,62,0.00,,,0.05,,2013-02-04 15:03:00,
2013-02-04 10:12:00,25.0,14.0,30.02,NW,304,4.0,12.0,62,0.00,,,0.05,,2013-02-04 15:12:00,
2013-02-04 10:23:00,26.0,14.0,30.02,WSW,241,5.0,11.0,60,0.00,,,0.05,,2013-02-04 15:23:00,
2013-02-04 10:33:00,26.0,14.0,30.02,WSW,241,5.0,11.0,60,0.00,,,0.05,,2013-02-04 15:33:00,
2013-02-04 10:43:00,26.0,14.0,30.02,WSW,241,5.0,11.0,60,0.00,,,0.05,,2013-02-04 15:43:00,
2013-02-04 10:52:00,27.0,14.0,30.02,WNW,302,5.0,10.0,57,0.00,,,0.05,,2013-02-04 15:52:00,
2013-02-04 11:03:00,27.0,13.0,30.01,NNW,337,3.0,10.0,56,0.00,,,0.05,,2013-02-04 16:03:00,
2013-02-04 11:11:00,27.0,13.0,30.01,NNW,337,3.0,10.0,56,0.00,,,0.05,,2013-02-04 16:11:00,
2013-02-04 11:22:00,28.0,14.0,30.01,NNW,345,3.0,9.0,55,0.00,,,0.05,,2013-02-04 16:22:00,
2013-02-04 11:33:00,28.0,14.0,30.01,West,269,4.0,10.0,54,0.00,,,0.05,,2013-02-04 16:33:00,
2013-02-04 11:42:00,28.0,14.0,30.01,West,269,4.0,10.0,54,0.00,,,0.05,,2013-02-04 16:42:00,
2013-02-04 11:51:00,27.0,12.0,30.01,WSW,251,7.0,13.0,52,0.00,,,0.05,,2013-02-04 16:51:00,
2013-02-04 12:02:00,28.0,13.0,30.00,West,271,4.0,14.0,52,0.00,,,0.04,,2013-02-04 17:02:00,
2013-02-04 12:11:00,28.0,13.0,30.00,West,271,4.0,14.0,52,0.00,,,0.04,,2013-02-04 17:11:00,
2013-02-04 12:21:00,29.0,14.0,29.99,West,274,4.0,12.0,53,0.00,,,0.04,,2013-02-04 17:21:00,
2013-02-04 12:32:00,28.0,13.0,29.99,WNW,289,6.0,15.0,52,0.00,,,0.04,,2013-02-04 17:32:00,
2013-02-04 12:42:00,28.0,13.0,29.99,WNW,289,6.0,15.0,52,0.00,,,0.04,,2013-02-04 17:42:00,
2013-02-04 12:51:00,28.0,12.0,29.98,WSW,252,5.0,11.0,50,0.00,,,0.04,,2013-02-04 17:51:00,
2013-02-04 13:03:00,28.0,12.0,29.98,WSW,242,4.0,12.0,51,0.00,,,0.02,,2013-02-04 18:03:00,
2013-02-04 13:11:00,28.0,12.0,29.98,WSW,242,4.0,12.0,51,0.00,,,0.02,,2013-02-04 18:11:00,
2013-02-04 13:22:00,29.0,13.0,29.97,WNW,296,5.0,13.0,50,0.00,,,0.02,,2013-02-04 18:22:00,
2013-02-04 13:32:00,29.0,13.0,29.97,WNW,291,5.0,10.0,50,0.00,,,0.02,,2013-02-04 18:32:00,
2013-02-04 13:42:00,29.0,13.0,29.97,WNW,291,5.0,10.0,50,0.00,,,0.02,,2013-02-04 18:42:00,
2013-02-04 13:52:00,29.0,13.0,29.96,WNW,284,4.0,11.0,50,0.00,,,0.02,,2013-02-04 18:52:00,
2013-02-04 14:02:00,29.0,12.0,29.96,WSW,240,6.0,15.0,49,0.00,,,0.01,,2013-02-04 19:02:00,
2013-02-04 14:11:00,29.0,12.0,29.96,WSW,240,6.0,15.0,49,0.00,,,0.01,,2013-02-04 19:11:00,
2013-02-04 14:22:00,29.0,13.0,29.95,WNW,283,4.0,14.0,50,0.00,,,0.01,,2013-02-04 19:22:00,
2013-02-04 14:32:00,29.0,12.0,29.95,WSW,244,4.0,10.0,49,0.00,,,0.01,,2013-02-04 19:32:00,
2013-02-04 14:42:00,29.0,12.0,29.95,WSW,244,4.0,10.0,49,0.00,,,0.01,,2013-02-04 19:42:00,
2013-02-04 14:52:00,30.0,14.0,29.95,NW,307,3.0,10.0,50,0.00,,,0.01,,2013-02-04 19:52:00,
2013-02-04 15:02:00,30.0,13.0,29.95,West,276,4.0,9.0,48,0.00,,,0.00,,2013-02-04 20:02:00,
2013-02-04 15:12:00,30.0,13.0,29.95,West,276,4.0,9.0,48,0.00,,,0.00,,2013-02-04 20:12:00,
2013-02-04 15:22:00,29.0,13.0,29.95,WNW,289,3.0,10.0,50,0.00,,,0.00,,2013-02-04 20:22:00,
2013-02-04 15:32:00,29.0,13.0,29.95,West,262,4.0,11.0,50,0.00,,,0.00,,2013-02-04 20:32:00,
2013-02-04 15:42:00,29.0,13.0,29.95,West,262,4.0,11.0,50,0.00,,,0.00,,2013-02-04 20:42:00,
2013-02-04 15:52:00,29.0,13.0,29.96,SW,225,3.0,15.0,50,0.00,,,0.00,,2013-02-04 20:52:00,
2013-02-04 16:03:00,29.0,13.0,29.96,NW,312,4.0,10.0,51,0.00,,,0.00,,2013-02-04 21:03:00,
2013-02-04 16:11:00,29.0,13.0,29.96,NW,312,4.0,10.0,51,0.00,,,0.00,,2013-02-04 21:11:00,
2013-02-04 16:22:00,29.0,14.0,29.95,WNW,286,2.0,11.0,52,0.00,,,0.00,,2013-02-04 21:22:00,
2013-02-04 16:32:00,29.0,13.0,29.96,West,275,5.0,11.0,50,0.00,,,0.00,,2013-02-04 21:32:00,
2013-02-04 16:42:00,29.0,13.0,29.96,West,275,5.0,11.0,50,0.00,,,0.00,,2013-02-04 21:42:00,
2013-02-04 16:52:00,29.0,13.0,29.96,NW,316,2.0,9.0,51,0.00,,,0.00,,2013-02-04 21:52:00,
2013-02-04 17:03:00,29.0,13.0,29.96,West,278,4.0,9.0,51,0.00,,,0.00,,2013-02-04 22:03:00,
2013-02-04 17:12:00,29.0,13.0,29.96,West,278,4.0,9.0,51,0.00,,,0.00,,2013-02-04 22:12:00,
2013-02-04 17:21:00,28.0,12.0,29.96,West,275,3.0,10.0,51,0.00,,,0.00,,2013-02-04 22:21:00,
2013-02-04 17:32:00,28.0,13.0,29.96,West,261,3.0,8.0,53,0.00,,,0.00,,2013-02-04 22:32:00,
2013-02-04 17:42:00,28.0,13.0,29.96,West,261,3.0,8.0,53,0.00,,,0.00,,2013-02-04 22:42:00,
2013-02-04 17:51:00,28.0,14.0,29.96,WSW,239,1.0,8.0,54,0.00,,,0.00,,2013-02-04 22:51:00,
2013-02-04 18:02:00,27.0,13.0,29.96,West,265,0.0,3.0,55,0.00,,,0.00,,2013-02-04 23:02:00,
2013-02-04 18:11:00,27.0,13.0,29.96,West,265,0.0,3.0,55,0.00,,,0.00,,2013-02-04 23:11:00,
2013-02-04 18:21:00,27.0,13.0,29.97,West,262,1.0,3.0,55,0.00,,,0.00,,2013-02-04 23:21:00,
2013-02-04 18:32:00,27.0,14.0,29.97,West,266,0.0,1.0,57,0.00,,,0.00,,2013-02-04 23:32:00,
2013-02-04 18:42:00,27.0,14.0,29.97,West,266,0.0,1.0,57,0.00,,,0.00,,2013-02-04 23:42:00,
2013-02-04 18:52:00,27.0,14.0,29.98,West,266,0.0,1.0,58,0.00,,,0.00,,2013-02-04 23:52:00,
2013-02-04 19:02:00,26.0,13.0,29.98,West,266,0.0,0.0,58,0.00,,,0.00,,2013-02-05 00:02:00,
2013-02-04 19:11:00,26.0,13.0,29.98,West,266,0.0,0.0,58,0.00,,,0.00,,2013-02-05 00:11:00,
2013-02-04 19:22:00,26.0,14.0,29.98,West,266,0.0,0.0,59,0.00,,,0.00,,2013-02-05 00:22:00,
2013-02-04 19:32:00,26.0,14.0,29.97,West,267,0.0,1.0,59,0.00,,,0.00,,2013-02-05 00:32:00,
2013-02-04 19:42:00,26.0,14.0,29.97,West,267,0.0,1.0,59,0.00,,,0.00,,2013-02-05 00:42:00,
2013-02-04 19:52:00,26.0,14.0,29.97,West,267,0.0,1.0,59,0.00,,,0.00,,2013-02-05 00:52:00,
2013-02-04 20:02:00,26.0,14.0,29.98,West,267,0.0,0.0,60,0.00,,,0.00,,2013-02-05 01:02:00,
2013-02-04 20:12:00,26.0,14.0,29.98,West,267,0.0,0.0,60,0.00,,,0.00,,2013-02-05 01:12:00,
2013-02-04 20:22:00,25.0,15.0,29.97,West,267,0.0,0.0,64,0.00,,,0.00,,2013-02-05 01:22:00,
2013-02-04 20:32:00,24.0,15.0,29.97,West,267,0.0,0.0,67,0.00,,,0.00,,2013-02-05 01:32:00,
2013-02-04 20:42:00,24.0,15.0,29.97,West,267,0.0,0.0,67,0.00,,,0.00,,2013-02-05 01:42:00,
2013-02-04 20:52:00,24.0,15.0,29.97,West,267,0.0,0.0,67,0.00,,,0.00,,2013-02-05 01:52:00,
2013-02-04 21:01:00,23.0,15.0,29.97,West,267,0.0,0.0,70,0.00,,,0.00,,2013-02-05 02:01:00,
2013-02-04 21:11:00,23.0,15.0,29.97,West,267,0.0,0.0,70,0.00,,,0.00,,2013-02-05 02:11:00,
2013-02-04 21:22:00,24.0,15.0,29.97,West,267,0.0,0.0,69,0.00,,,0.00,,2013-02-05 02:22:00,
2013-02-04 21:32:00,25.0,16.0,29.97,West,267,0.0,0.0,67,0.00,,,0.00,,2013-02-05 02:32:00,
2013-02-04 21:42:00,25.0,16.0,29.97,West,267,0.0,0.0,67,0.00,,,0.00,,2013-02-05 02:42:00,
2013-02-04 21:52:00,25.0,16.0,29.98,West,267,0.0,0.0,69,0.00,,,0.00,,2013-02-05 02:52:00,
2013-02-04 22:02:00,26.0,17.0,29.98,West,267,0.0,0.0,68,0.00,,,0.00,,2013-02-05 03:02:00,
2013-02-04 22:11:00,26.0,17.0,29.98,West,267,0.0,0.0,68,0.00,,,0.00,,2013-02-05 03:11:00,
2013-02-04 22:21:00,26.0,18.0,29.97,West,267,0.0,0.0,70,0.00,,,0.00,,2013-02-05 03:21:00,
2013-02-04 22:32:00,27.0,18.0,29.97,West,267,0.0,0.0,68,0.00,,,0.00,,2013-02-05 03:32:00,
2013-02-04 22:42:00,27.0,18.0,29.97,West,267,0.0,0.0,68,0.00,,,0.00,,2013-02-05 03:42:00,
2013-02-04 22:51:00,27.0,18.0,29.97,West,267,0.0,1.0,69,0.00,,,0.00,,2013-02-05 03:51:00,
2013-02-04 23:01:00,27.0,20.0,29.96,West,260,0.0,1.0,73,0.00,,,0.00,,2013-02-05 04:01:00,
2013-02-04 23:11:00,27.0,20.0,29.96,West,260,0.0,1.0,73,0.00,,,0.00,,2013-02-05 04:11:00,
2013-02-04 23:22:00,28.0,21.0,29.96,West,279,0.0,1.0,74,0.00,,,0.00,,2013-02-05 04:22:00,
2013-02-04 23:32:00,28.0,21.0,29.96,West,279,0.0,0.0,76,0.00,,,0.00,,2013-02-05 04:32:00,
2013-02-04 23:42:00,28.0,21.0,29.96,West,279,0.0,0.0,76,0.00,,,0.00,,2013-02-05 04:42:00,
2013-02-04 23:52:00,28.0,21.0,29.96,West,279,0.0,0.0,76,0.00,,,0.00,,2013-02-05 04:52:00,